Regional Weather Roundup
Issued by NWS

Home | Current Version | Previous Version | Text Only | Print | Product List | Glossary On
Versions: 1 2 3 4 5 6 7 8 9 10 11 12 13 14 15 16 17 18 19 20 21 22 23 24 25 26 27 28 29 30 31 32 33 34 35 36 37 38 39 40 41 42 43 44 45 46 47 48 49 50
000
ASUS43 KTOP 211159
RWRKS

WEATHER ROUNDUP FOR KANSAS
NATIONAL WEATHER SERVICE GOODLAND KS
600 AM CST TUE NOV 21 2017

NOTE:  "FAIR" INDICATES FEW OR NO CLOUDS BELOW 12,000 FEET WITH NO
SIGNIFICANT WEATHER AND/OR OBSTRUCTIONS TO VISIBILITY.

KSZ001>006-013>018-027>032-041>047-211300-
NORTHWEST KANSAS

CITY           SKY/WX    TMP DP  RH WIND       PRES   REMARKS
GOODLAND       CLOUDY    53  30  41 N14       29.97R
6HR MIN TEMP:  38; 6HR MAX TEMP:  58;

HAYS           PTCLDY    43  23  45 NW8       29.89
HILL CITY      PTCLDY    44  25  47 NW5       29.93R
6HR MIN TEMP:  42; 6HR MAX TEMP:  53;

RUSSELL        CLOUDY    42  27  55 N9        29.86R
6HR MIN TEMP:  41; 6HR MAX TEMP:  48;

$$

KSZ061>065-074>080-084>089-211300-
SOUTHWEST KANSAS

CITY           SKY/WX    TMP DP  RH WIND       PRES   REMARKS
DODGE CITY     PTCLDY    44  23  43 NW8       29.90R
6HR MIN TEMP:  41; 6HR MAX TEMP:  48;

GARDEN CITY    PTCLDY    45  23  42 N10       29.92R
6HR MIN TEMP:  37; 6HR MAX TEMP:  45;

GREAT BEND     CLOUDY    47  25  42 N6        29.86R
LIBERAL        CLOUDY    40  20  44 NW12      29.90R WCI  33
$$

KSZ066>073-081>083-090>101-211300-
SOUTHEAST KANSAS

CITY           SKY/WX    TMP DP  RH WIND       PRES   REMARKS
CHANUTE        CLOUDY    44  33  65 S7        29.82R
6HR MIN TEMP:  43; 6HR MAX TEMP:  50;

COFFEYVILLE    MOCLDY    45  34  65 S7        29.83R
6HR MIN TEMP:  44; 6HR MAX TEMP:  51;

HUTCHINSON     CLOUDY    43  29  57 W9        29.81R
6HR MIN TEMP:  34; 6HR MAX TEMP:  46;

MEDICINE LODGE   N/A     36  30  79 N3        29.81R
NEWTON         CLOUDY    41  30  65 W6        29.81R
PARSONS        PTCLDY    44  34  67 SW5       29.84R
6HR MIN TEMP:  44; 6HR MAX TEMP:  50;

WICHITA INTL   MOCLDY    37  31  78 SE5       29.78F
6HR MIN TEMP:  37; 6HR MAX TEMP:  49;

WICHITA JABRA  CLOUDY    42  32  67 SW3       29.80R
6HR MIN TEMP:  41; 6HR MAX TEMP:  51;

WICHITA MCCONL PTCLDY    41  30  64 NW3       29.80R
WINFIELD       PTCLDY    42  33  70 CALM      29.81S
6HR MIN TEMP:  37; 6HR MAX TEMP:  48;

$$

KSZ007>012-019>026-033>040-048>060-102>105-211300-
NORTHEAST KANSAS

CITY           SKY/WX    TMP DP  RH WIND       PRES   REMARKS
CONCORDIA      CLOUDY    48  25  40 N12       29.89R
6HR MIN TEMP:  44; 6HR MAX TEMP:  51;

EMPORIA        CLOUDY    43  31  62 W3        29.81R
6HR MIN TEMP:  41; 6HR MAX TEMP:  49;

LAWRENCE       CLOUDY    46  33  60 W3        29.82R
6HR MIN TEMP:  45; 6HR MAX TEMP:  53;

MANHATTAN      CLOUDY    49  29  46 N5        29.85R
6HR MIN TEMP:  45; 6HR MAX TEMP:  54;

OLATHE IND     CLOUDY    45  33  63 SW7       29.81R
6HR MIN TEMP:  43; 6HR MAX TEMP:  50;

OLATHE EXE     CLOUDY    45  32  60 SW6       29.80R
6HR MIN TEMP:  45; 6HR MAX TEMP:  50;

SALINA         PTCLDY    49  29  46 NW9       29.85R
6HR MIN TEMP:  46; 6HR MAX TEMP:  53;

TOPEKA BILLARD CLOUDY    45  34  65 W3        29.82R
6HR MIN TEMP:  44; 6HR MAX TEMP:  54;

TOPEKA FORBES  CLOUDY    43  33  68 W3        29.82R
6HR MIN TEMP:  42; 6HR MAX TEMP:  54;

$$




USA.gov is the U.S. government's official web portal to all federal, state and local government web resources and services.